| time (UTC) | temp C | wind direction | speed KPH | gust KPH | rain 1hr cm | rain 24hr cm | rain mn cm | humidity % | barometer mb |
| 20260507015006 | 8 | 30 | 3.2 | 9.7 | 0.00 | 0.03 | 0.00 | 91 | 1014.2 |
| 20260507014503 | 8 | 32 | 3.2 | 8.0 | 0.00 | 0.03 | 0.00 | 90 | 1014.2 |
| 20260507014214 | 8 | 34 | 3.2 | 6.4 | 0.00 | 0.03 | 0.00 | 90 | 1014.2 |
| 20260507013504 | 8 | 30 | 3.2 | 8.0 | 0.00 | 0.03 | 0.00 | 90 | 1014.2 |
| 20260507013003 | 8 | 23 | 3.2 | 8.0 | 0.00 | 0.03 | 0.00 | 90 | 1014.2 |
| 20260507012718 | 8 | 16 | 3.2 | 9.7 | 0.00 | 0.03 | 0.00 | 90 | 1014.2 |
| 20260507012004 | 8 | 7 | 3.2 | 9.7 | 0.00 | 0.03 | 0.00 | 90 | 1014.2 |
| 20260507011503 | 8 | 5 | 4.8 | 9.7 | 0.00 | 0.03 | 0.00 | 90 | 1014.2 |
| 20260507011003 | 7 | 5 | 3.2 | 9.7 | 0.00 | 0.03 | 0.00 | 90 | 1014.3 |
| 20260507010715 | 7 | 3 | 3.2 | 9.7 | 0.00 | 0.03 | 0.00 | 90 | 1014.3 |
| 20260507010004 | 7 | 341 | 3.2 | 9.7 | 0.00 | 0.03 | 0.00 | 90 | 1014.3 |
| 20260507005504 | 7 | 325 | 4.8 | 9.7 | 0.00 | 0.03 | 0.00 | 90 | 1014.4 |
| 20260507005003 | 7 | 319 | 4.8 | 9.7 | 0.00 | 0.03 | 0.00 | 90 | 1014.4 |
| 20260507004717 | 7 | 320 | 4.8 | 8.0 | 0.00 | 0.03 | 0.00 | 90 | 1014.4 |
| 20260507004215 | 7 | 320 | 4.8 | 9.7 | 0.00 | 0.03 | 0.00 | 90 | 1014.4 |
| 20260507003503 | 7 | 319 | 4.8 | 9.7 | 0.00 | 0.03 | 0.00 | 90 | 1014.4 |
| 20260507003003 | 7 | 315 | 4.8 | 9.7 | 0.00 | 0.03 | 0.00 | 89 | 1014.4 |
| 20260507002503 | 7 | 320 | 6.4 | 11.3 | 0.00 | 0.03 | 0.00 | 89 | 1014.3 |
| 20260507002003 | 7 | 324 | 8.0 | 14.5 | 0.00 | 0.03 | 0.00 | 89 | 1014.3 |
| 20260507001503 | 7 | 324 | 6.4 | 14.5 | 0.00 | 0.03 | 0.00 | 89 | 1014.3 |
| 20260507001213 | 7 | 320 | 6.4 | 11.3 | 0.00 | 0.03 | 0.00 | 89 | 1014.4 |
| 20260507000503 | 7 | 321 | 4.8 | 9.7 | 0.00 | 0.03 | 0.00 | 89 | 1014.4 |
| 20260507000015 | 7 | 313 | 4.8 | 11.3 | 0.00 | 0.03 | 0.00 | 89 | 1014.4 |
| 20260506235717 | 7 | 311 | 4.8 | 11.3 | 0.00 | 0.03 | 0.03 | 89 | 1014.4 |
| 20260506235003 | 7 | 321 | 4.8 | 14.5 | 0.00 | 0.03 | 0.03 | 89 | 1014.4 |
| 20260506234505 | 7 | 318 | 4.8 | 14.5 | 0.00 | 0.03 | 0.03 | 89 | 1014.4 |
| 20260506234005 | 7 | 322 | 4.8 | 9.7 | 0.00 | 0.03 | 0.03 | 89 | 1014.4 |
| 20260506233503 | 7 | 323 | 4.8 | 11.3 | 0.00 | 0.03 | 0.03 | 89 | 1014.4 |
| 20260506233217 | 7 | 322 | 4.8 | 11.3 | 0.00 | 0.03 | 0.03 | 89 | 1014.4 |
| 20260506232504 | 7 | 321 | 4.8 | 9.7 | 0.00 | 0.03 | 0.03 | 89 | 1014.4 |
| 20260506232003 | 7 | 325 | 4.8 | 9.7 | 0.00 | 0.03 | 0.03 | 89 | 1014.4 |
| 20260506231504 | 8 | 324 | 6.4 | 11.3 | 0.00 | 0.03 | 0.03 | 89 | 1014.4 |
| 20260506231004 | 8 | 322 | 4.8 | 11.3 | 0.00 | 0.03 | 0.03 | 89 | 1014.3 |
| 20260506230503 | 8 | 326 | 3.2 | 8.0 | 0.00 | 0.03 | 0.03 | 89 | 1014.3 |
| 20260506230003 | 8 | 334 | 3.2 | 8.0 | 0.00 | 0.03 | 0.03 | 89 | 1014.3 |
| 20260506225503 | 8 | 337 | 4.8 | 8.0 | 0.00 | 0.03 | 0.03 | 89 | 1014.3 |
| 20260506225215 | 8 | 343 | 4.8 | 9.7 | 0.00 | 0.03 | 0.03 | 89 | 1014.3 |
| 20260506224503 | 8 | 352 | 4.8 | 9.7 | 0.00 | 0.03 | 0.03 | 88 | 1014.3 |
| 20260506224003 | 8 | 346 | 4.8 | 9.7 | 0.00 | 0.03 | 0.03 | 88 | 1014.2 |
| 20260506223714 | 8 | 344 | 4.8 | 9.7 | 0.00 | 0.03 | 0.03 | 88 | 1014.2 |
| 20260506223003 | 8 | 355 | 4.8 | 11.3 | 0.00 | 0.03 | 0.03 | 88 | 1014.2 |
| 20260506222503 | 8 | 353 | 4.8 | 11.3 | 0.00 | 0.03 | 0.03 | 88 | 1014.3 |
| 20260506222005 | 8 | 348 | 4.8 | 9.7 | 0.00 | 0.03 | 0.03 | 88 | 1014.3 |
| 20260506221505 | 8 | 350 | 4.8 | 9.7 | 0.00 | 0.03 | 0.03 | 88 | 1014.3 |
| 20260506221003 | 8 | 352 | 4.8 | 9.7 | 0.00 | 0.03 | 0.03 | 88 | 1014.3 |
| 20260506220504 | 8 | 351 | 4.8 | 9.7 | 0.00 | 0.03 | 0.03 | 88 | 1014.3 |
| 20260506220003 | 8 | 349 | 4.8 | 9.7 | 0.00 | 0.03 | 0.03 | 88 | 1014.3 |
| 20260506215503 | 8 | 353 | 4.8 | 9.7 | 0.00 | 0.03 | 0.03 | 87 | 1014.2 |
| 20260506215003 | 8 | 354 | 4.8 | 11.3 | 0.00 | 0.03 | 0.03 | 87 | 1014.2 |
| 20260506214714 | 8 | 353 | 4.8 | 11.3 | 0.00 | 0.03 | 0.03 | 87 | 1014.2 |
| 20260506214217 | 8 | 357 | 4.8 | 9.7 | 0.00 | 0.03 | 0.03 | 87 | 1014.2 |
| 20260506213715 | 8 | 356 | 4.8 | 11.3 | 0.00 | 0.03 | 0.03 | 87 | 1014.2 |
| 20260506213005 | 8 | 356 | 8.0 | 14.5 | 0.00 | 0.03 | 0.03 | 87 | 1014.2 |
| 20260506212504 | 8 | 355 | 8.0 | 14.5 | 0.00 | 0.03 | 0.03 | 87 | 1014.2 |
| 20260506212003 | 8 | 353 | 6.4 | 11.3 | 0.00 | 0.03 | 0.03 | 86 | 1014.2 |
| 20260506211717 | 8 | 352 | 6.4 | 11.3 | 0.00 | 0.03 | 0.03 | 86 | 1014.2 |
| 20260506211003 | 8 | 351 | 8.0 | 14.5 | 0.00 | 0.03 | 0.03 | 86 | 1014.1 |
| 20260506210504 | 8 | 351 | 9.7 | 14.5 | 0.00 | 0.03 | 0.03 | 86 | 1014.1 |
| 20260506210003 | 8 | 353 | 8.0 | 14.5 | 0.00 | 0.03 | 0.03 | 86 | 1014.1 |
| 20260506205503 | 8 | 356 | 8.0 | 14.5 | 0.00 | 0.03 | 0.03 | 86 | 1014.0 |
| 20260506205003 | 8 | 356 | 8.0 | 14.5 | 0.00 | 0.03 | 0.03 | 85 | 1014.0 |
| 20260506204504 | 8 | 359 | 6.4 | 14.5 | 0.00 | 0.03 | 0.03 | 85 | 1014.0 |
| 20260506204213 | 8 | 360 | 6.4 | 14.5 | 0.00 | 0.03 | 0.03 | 85 | 1013.8 |
| 20260506203503 | 8 | 360 | 6.4 | 14.5 | 0.00 | 0.03 | 0.03 | 85 | 1013.8 |
| 20260506203004 | 8 | 7 | 6.4 | 14.5 | 0.00 | 0.03 | 0.03 | 84 | 1013.8 |
| 20260506202503 | 8 | 7 | 8.0 | 17.7 | 0.00 | 0.03 | 0.03 | 84 | 1013.7 |
| 20260506202215 | 8 | 5 | 8.0 | 19.3 | 0.00 | 0.03 | 0.03 | 84 | 1013.7 |
| 20260506201504 | 8 | 5 | 9.7 | 20.9 | 0.00 | 0.03 | 0.03 | 83 | 1013.7 |
| 20260506201004 | 8 | 2 | 9.7 | 20.9 | 0.00 | 0.03 | 0.03 | 83 | 1013.6 |
| 20260506200504 | 8 | 2 | 9.7 | 20.9 | 0.00 | 0.03 | 0.03 | 83 | 1013.6 |
| 20260506200003 | 8 | 4 | 8.0 | 19.3 | 0.00 | 0.03 | 0.03 | 83 | 1013.6 |
| 20260506195503 | 8 | 7 | 6.4 | 16.1 | 0.00 | 0.03 | 0.03 | 82 | 1013.6 |
| 20260506195003 | 8 | 5 | 8.0 | 17.7 | 0.00 | 0.03 | 0.03 | 82 | 1013.6 |
| 20260506194503 | 8 | 1 | 9.7 | 17.7 | 0.00 | 0.03 | 0.03 | 81 | 1013.6 |
| 20260506194003 | 8 | 1 | 11.3 | 20.9 | 0.00 | 0.03 | 0.03 | 81 | 1013.6 |
| 20260506193503 | 9 | 359 | 12.9 | 20.9 | 0.00 | 0.03 | 0.03 | 80 | 1013.6 |
| 20260506193003 | 9 | 359 | 12.9 | 20.9 | 0.00 | 0.03 | 0.03 | 80 | 1013.6 |
| 20260506192503 | 9 | 360 | 11.3 | 20.9 | 0.00 | 0.03 | 0.03 | 79 | 1013.5 |
| 20260506192215 | 9 | 359 | 11.3 | 22.5 | 0.00 | 0.03 | 0.03 | 78 | 1013.5 |
| 20260506191504 | 10 | 359 | 12.9 | 22.5 | 0.00 | 0.03 | 0.03 | 77 | 1013.5 |
| 20260506191003 | 10 | 2 | 11.3 | 22.5 | 0.00 | 0.03 | 0.03 | 77 | 1013.3 |
| 20260506190504 | 10 | 7 | 9.7 | 22.5 | 0.00 | 0.03 | 0.03 | 76 | 1013.3 |
| 20260506190217 | 10 | 4 | 9.7 | 20.9 | 0.00 | 0.03 | 0.03 | 75 | 1013.3 |
| 20260506185505 | 10 | 7 | 9.7 | 20.9 | 0.00 | 0.03 | 0.03 | 74 | 1013.3 |
| 20260506185218 | 10 | 12 | 9.7 | 20.9 | 0.00 | 0.03 | 0.03 | 74 | 1013.3 |
| 20260506184504 | 10 | 360 | 11.3 | 22.5 | 0.00 | 0.03 | 0.03 | 73 | 1013.3 |
| 20260506184214 | 10 | 358 | 11.3 | 22.5 | 0.00 | 0.03 | 0.03 | 73 | 1013.1 |
| 20260506183504 | 11 | 16 | 9.7 | 20.9 | 0.00 | 0.03 | 0.03 | 72 | 1013.1 |
| 20260506183005 | 11 | 16 | 9.7 | 20.9 | 0.00 | 0.03 | 0.03 | 71 | 1013.1 |
| 20260506182713 | 11 | 16 | 9.7 | 20.9 | 0.00 | 0.03 | 0.03 | 71 | 1013.0 |
| 20260506182216 | 11 | 7 | 9.7 | 20.9 | 0.00 | 0.03 | 0.03 | 71 | 1013.0 |
| 20260506181503 | 11 | 1 | 11.3 | 24.1 | 0.00 | 0.03 | 0.03 | 71 | 1013.0 |
| 20260506181004 | 11 | 2 | 9.7 | 24.1 | 0.00 | 0.03 | 0.03 | 71 | 1012.8 |
| 20260506180504 | 11 | 8 | 9.7 | 19.3 | 0.00 | 0.03 | 0.03 | 70 | 1012.8 |
| 20260506180005 | 11 | 7 | 11.3 | 24.1 | 0.00 | 0.03 | 0.03 | 69 | 1012.8 |
| 20260506175503 | 11 | 360 | 11.3 | 24.1 | 0.00 | 0.03 | 0.03 | 69 | 1012.6 |
| 20260506175004 | 11 | 356 | 12.9 | 22.5 | 0.00 | 0.03 | 0.03 | 68 | 1012.6 |
| 20260506174717 | 11 | 358 | 11.3 | 22.5 | 0.00 | 0.03 | 0.03 | 68 | 1012.6 |
| 20260506174214 | 11 | 5 | 9.7 | 22.5 | 0.00 | 0.03 | 0.03 | 67 | 1012.5 |
| 20260506173504 | 12 | 5 | 11.3 | 24.1 | 0.00 | 0.03 | 0.03 | 66 | 1012.5 |
| 20260506173004 | 12 | 1 | 11.3 | 24.1 | 0.00 | 0.03 | 0.03 | 66 | 1012.5 |
| 20260506172503 | 12 | 1 | 9.7 | 22.5 | 0.00 | 0.03 | 0.03 | 66 | 1012.4 |
| 20260506172004 | 12 | 360 | 8.0 | 20.9 | 0.00 | 0.03 | 0.03 | 67 | 1012.4 |
| 20260506171504 | 11 | 8 | 8.0 | 20.9 | 0.00 | 0.03 | 0.03 | 67 | 1012.4 |
| 20260506171004 | 11 | 22 | 8.0 | 19.3 | 0.00 | 0.03 | 0.03 | 67 | 1012.5 |
| 20260506170504 | 11 | 27 | 8.0 | 19.3 | 0.00 | 0.03 | 0.03 | 66 | 1012.5 |
| 20260506170003 | 12 | 16 | 8.0 | 16.1 | 0.00 | 0.03 | 0.03 | 65 | 1012.5 |
| 20260506165716 | 12 | 20 | 8.0 | 17.7 | 0.00 | 0.03 | 0.03 | 65 | 1012.4 |
| 20260506165003 | 12 | 25 | 6.4 | 17.7 | 0.00 | 0.03 | 0.03 | 65 | 1012.4 |
| 20260506164717 | 12 | 22 | 6.4 | 19.3 | 0.00 | 0.03 | 0.03 | 64 | 1012.4 |
| 20260506164004 | 12 | 23 | 8.0 | 19.3 | 0.00 | 0.03 | 0.03 | 64 | 1012.3 |
| 20260506163503 | 12 | 23 | 9.7 | 19.3 | 0.00 | 0.03 | 0.03 | 63 | 1012.3 |
| 20260506163216 | 12 | 16 | 9.7 | 22.5 | 0.00 | 0.03 | 0.03 | 63 | 1012.3 |
| 20260506162503 | 12 | 6 | 11.3 | 22.5 | 0.00 | 0.03 | 0.03 | 62 | 1012.2 |
| 20260506162004 | 12 | 357 | 11.3 | 24.1 | 0.00 | 0.03 | 0.03 | 62 | 1012.2 |
| 20260506161504 | 12 | 351 | 12.9 | 24.1 | 0.00 | 0.03 | 0.03 | 61 | 1012.2 |
| 20260506161003 | 12 | 344 | 11.3 | 22.5 | 0.00 | 0.03 | 0.03 | 61 | 1012.3 |
| 20260506160716 | 12 | 340 | 12.9 | 24.1 | 0.00 | 0.03 | 0.03 | 60 | 1012.3 |
| 20260506160003 | 12 | 341 | 11.3 | 24.1 | 0.00 | 0.03 | 0.03 | 60 | 1012.3 |
| 20260506155504 | 12 | 345 | 11.3 | 24.1 | 0.00 | 0.03 | 0.03 | 60 | 1012.4 |
| 20260506155003 | 12 | 349 | 11.3 | 24.1 | 0.00 | 0.03 | 0.03 | 60 | 1012.4 |
| 20260506154503 | 12 | 349 | 11.3 | 24.1 | 0.00 | 0.03 | 0.03 | 58 | 1012.4 |
| 20260506154216 | 12 | 350 | 11.3 | 24.1 | 0.00 | 0.03 | 0.03 | 58 | 1012.4 |
| 20260506153503 | 12 | 358 | 12.9 | 22.5 | 0.00 | 0.03 | 0.03 | 57 | 1012.4 |
| 20260506153217 | 12 | 1 | 11.3 | 22.5 | 0.00 | 0.03 | 0.03 | 57 | 1012.4 |
| 20260506152504 | 12 | 2 | 9.7 | 22.5 | 0.00 | 0.03 | 0.03 | 58 | 1012.3 |
| 20260506152003 | 12 | 351 | 11.3 | 22.5 | 0.00 | 0.03 | 0.03 | 57 | 1012.3 |
| 20260506151503 | 13 | 340 | 11.3 | 19.3 | 0.00 | 0.03 | 0.03 | 56 | 1012.3 |
| 20260506151219 | 13 | 336 | 9.7 | 19.3 | 0.00 | 0.03 | 0.03 | 56 | 1012.2 |
| 20260506150503 | 12 | 346 | 11.3 | 22.5 | 0.00 | 0.03 | 0.03 | 56 | 1012.2 |
| 20260506150004 | 13 | 344 | 11.3 | 22.5 | 0.00 | 0.03 | 0.03 | 56 | 1012.2 |
| 20260506145504 | 13 | 334 | 11.3 | 20.9 | 0.00 | 0.03 | 0.03 | 56 | 1012.2 |
| 20260506145215 | 13 | 330 | 11.3 | 20.9 | 0.00 | 0.03 | 0.03 | 56 | 1012.2 |
| 20260506144503 | 13 | 348 | 11.3 | 19.3 | 0.00 | 0.03 | 0.03 | 56 | 1012.2 |
| 20260506144216 | 13 | 352 | 9.7 | 19.3 | 0.00 | 0.03 | 0.03 | 55 | 1012.2 |
| 20260506143503 | 13 | 349 | 11.3 | 20.9 | 0.00 | 0.03 | 0.03 | 56 | 1012.2 |
| 20260506143003 | 13 | 3 | 9.7 | 20.9 | 0.00 | 0.03 | 0.03 | 57 | 1012.2 |
| 20260506142715 | 13 | 5 | 8.0 | 19.3 | 0.00 | 0.03 | 0.03 | 59 | 1012.1 |
| 20260506142218 | 13 | 360 | 8.0 | 17.7 | 0.00 | 0.03 | 0.03 | 58 | 1012.1 |
| 20260506141504 | 12 | 354 | 9.7 | 19.3 | 0.00 | 0.03 | 0.03 | 60 | 1012.1 |
| 20260506141004 | 12 | 357 | 9.7 | 20.9 | 0.00 | 0.03 | 0.03 | 60 | 1012.3 |
| 20260506140503 | 12 | 355 | 11.3 | 20.9 | 0.00 | 0.03 | 0.03 | 60 | 1012.3 |
| 20260506140004 | 12 | 356 | 9.7 | 19.3 | 0.00 | 0.03 | 0.03 | 60 | 1012.3 |
| 20260506135504 | 12 | 2 | 8.0 | 19.3 | 0.00 | 0.03 | 0.03 | 59 | 1012.5 |
| 20260506135004 | 12 | 10 | 8.0 | 19.3 | 0.00 | 0.03 | 0.03 | 61 | 1012.5 |
| 20260506134503 | 12 | 14 | 9.7 | 19.3 | 0.00 | 0.03 | 0.03 | 61 | 1012.5 |
| 20260506134005 | 12 | 22 | 8.0 | 19.3 | 0.00 | 0.03 | 0.03 | 62 | 1012.5 |
| 20260506133503 | 12 | 22 | 8.0 | 19.3 | 0.00 | 0.03 | 0.03 | 62 | 1012.5 |
| 20260506133003 | 12 | 14 | 9.7 | 20.9 | 0.00 | 0.03 | 0.03 | 63 | 1012.5 |
| 20260506132503 | 11 | 6 | 11.3 | 20.9 | 0.00 | 0.03 | 0.03 | 64 | 1012.5 |
| 20260506132005 | 11 | 359 | 11.3 | 27.4 | 0.00 | 0.03 | 0.03 | 64 | 1012.5 |
| 20260506131717 | 12 | 358 | 11.3 | 27.4 | 0.00 | 0.03 | 0.03 | 65 | 1012.5 |
| 20260506131003 | 12 | 20 | 6.4 | 19.3 | 0.00 | 0.03 | 0.03 | 66 | 1012.6 |
| 20260506130503 | 12 | 9 | 8.0 | 17.7 | 0.00 | 0.03 | 0.03 | 66 | 1012.6 |
| 20260506130005 | 12 | 357 | 11.3 | 19.3 | 0.00 | 0.03 | 0.03 | 65 | 1012.6 |
| 20260506125504 | 12 | 355 | 12.9 | 22.5 | 0.00 | 0.03 | 0.03 | 66 | 1012.6 |
| 20260506125003 | 12 | 1 | 11.3 | 22.5 | 0.00 | 0.03 | 0.03 | 65 | 1012.6 |
| 20260506124715 | 12 | 3 | 11.3 | 22.5 | 0.00 | 0.03 | 0.03 | 67 | 1012.6 |
| 20260506124004 | 11 | 6 | 9.7 | 20.9 | 0.00 | 0.03 | 0.03 | 67 | 1012.6 |
| 20260506123504 | 11 | 13 | 9.7 | 24.1 | 0.00 | 0.03 | 0.03 | 70 | 1012.6 |
| 20260506123003 | 11 | 16 | 8.0 | 24.1 | 0.00 | 0.03 | 0.03 | 71 | 1012.6 |
| 20260506122503 | 10 | 7 | 8.0 | 19.3 | 0.00 | 0.03 | 0.03 | 74 | 1012.7 |
| 20260506122003 | 10 | 359 | 9.7 | 19.3 | 0.03 | 0.03 | 0.03 | 75 | 1012.7 |
| 20260506121503 | 10 | 358 | 8.0 | 19.3 | 0.03 | 0.03 | 0.03 | 77 | 1012.7 |
| 20260506121003 | 10 | 8 | 8.0 | 19.3 | 0.03 | 0.03 | 0.03 | 79 | 1012.7 |
| 20260506120503 | 10 | 19 | 8.0 | 19.3 | 0.03 | 0.03 | 0.03 | 78 | 1012.7 |
| 20260506120003 | 10 | 16 | 6.4 | 19.3 | 0.03 | 0.03 | 0.03 | 79 | 1012.7 |
| 20260506115715 | 10 | 20 | 6.4 | 19.3 | 0.03 | 0.03 | 0.03 | 80 | 1012.7 |
| 20260506115212 | 11 | 34 | 4.8 | 11.3 | 0.03 | 0.03 | 0.03 | 81 | 1012.7 |
| 20260506114504 | 10 | 32 | 4.8 | 16.1 | 0.03 | 0.03 | 0.03 | 82 | 1012.7 |
| 20260506114003 | 10 | 33 | 4.8 | 11.3 | 0.03 | 0.03 | 0.03 | 82 | 1012.8 |
| 20260506113504 | 10 | 25 | 4.8 | 11.3 | 0.03 | 0.03 | 0.03 | 83 | 1012.8 |
| 20260506113003 | 10 | 10 | 6.4 | 14.5 | 0.03 | 0.03 | 0.03 | 82 | 1012.8 |
| 20260506112503 | 10 | 12 | 9.7 | 20.9 | 0.03 | 0.03 | 0.03 | 80 | 1012.9 |
| 20260506112004 | 10 | 14 | 11.3 | 20.9 | 0.00 | 0.00 | 0.00 | 78 | 1012.9 |
| 20260506111503 | 10 | 15 | 9.7 | 19.3 | 0.00 | 0.00 | 0.00 | 77 | 1012.9 |
| 20260506111003 | 10 | 18 | 6.4 | 17.7 | 0.00 | 0.00 | 0.00 | 77 | 1012.7 |
| 20260506110503 | 10 | 11 | 4.8 | 14.5 | 0.00 | 0.00 | 0.00 | 77 | 1012.7 |
| 20260506110003 | 10 | 2 | 8.0 | 20.9 | 0.00 | 0.00 | 0.00 | 76 | 1012.7 |
| 20260506105504 | 10 | 355 | 11.3 | 24.1 | 0.00 | 0.00 | 0.00 | 75 | 1012.7 |
| 20260506105004 | 10 | 354 | 9.7 | 24.1 | 0.00 | 0.00 | 0.00 | 74 | 1012.7 |
| 20260506104503 | 10 | 353 | 9.7 | 24.1 | 0.00 | 0.00 | 0.00 | 74 | 1012.7 |
| 20260506104003 | 10 | 352 | 11.3 | 20.9 | 0.00 | 0.00 | 0.00 | 73 | 1012.8 |
| 20260506103503 | 10 | 355 | 9.7 | 20.9 | 0.00 | 0.00 | 0.00 | 73 | 1012.8 |
| 20260506103004 | 10 | 352 | 8.0 | 17.7 | 0.00 | 0.00 | 0.00 | 74 | 1012.8 |
| 20260506102503 | 10 | 351 | 9.7 | 20.9 | 0.00 | 0.00 | 0.00 | 74 | 1012.8 |
| 20260506102003 | 10 | 2 | 9.7 | 20.9 | 0.00 | 0.00 | 0.00 | 74 | 1012.8 |
| 20260506101503 | 10 | 12 | 9.7 | 19.3 | 0.00 | 0.00 | 0.00 | 75 | 1012.8 |
| 20260506101003 | 10 | 8 | 11.3 | 19.3 | 0.00 | 0.00 | 0.00 | 76 | 1012.8 |
| 20260506100504 | 10 | 8 | 11.3 | 20.9 | 0.00 | 0.00 | 0.00 | 76 | 1012.8 |
| 20260506100005 | 10 | 10 | 8.0 | 20.9 | 0.00 | 0.00 | 0.00 | 77 | 1012.8 |
| 20260506095505 | 10 | 8 | 9.7 | 19.3 | 0.00 | 0.00 | 0.00 | 78 | 1012.8 |
| 20260506095004 | 10 | 13 | 11.3 | 22.5 | 0.00 | 0.00 | 0.00 | 76 | 1012.8 |
| 20260506094503 | 10 | 8 | 12.9 | 24.1 | 0.00 | 0.00 | 0.00 | 73 | 1012.8 |
| 20260506094004 | 10 | 2 | 12.9 | 27.4 | 0.00 | 0.00 | 0.00 | 73 | 1012.8 |
| 20260506093718 | 10 | 1 | 12.9 | 27.4 | 0.00 | 0.00 | 0.00 | 73 | 1012.8 |
| 20260506093004 | 10 | 359 | 16.1 | 29.0 | 0.00 | 0.00 | 0.00 | 71 | 1012.8 |
| 20260506092713 | 10 | 358 | 14.5 | 29.0 | 0.00 | 0.00 | 0.00 | 71 | 1012.6 |
| 20260506092003 | 10 | 353 | 11.3 | 20.9 | 0.00 | 0.00 | 0.00 | 70 | 1012.6 |
| 20260506091504 | 10 | 351 | 12.9 | 29.0 | 0.00 | 0.00 | 0.00 | 70 | 1012.6 |
| 20260506091003 | 11 | 357 | 16.1 | 32.2 | 0.00 | 0.00 | 0.00 | 70 | 1012.6 |
| 20260506090503 | 10 | 360 | 16.1 | 32.2 | 0.00 | 0.00 | 0.00 | 69 | 1012.6 |
| 20260506090005 | 10 | 356 | 16.1 | 30.6 | 0.00 | 0.00 | 0.00 | 71 | 1012.6 |
| 20260506085503 | 10 | 356 | 14.5 | 32.2 | 0.00 | 0.00 | 0.00 | 69 | 1012.6 |
| 20260506085004 | 10 | 3 | 12.9 | 32.2 | 0.00 | 0.00 | 0.00 | 71 | 1012.6 |
| 20260506084503 | 10 | 1 | 14.5 | 25.7 | 0.00 | 0.00 | 0.00 | 72 | 1012.6 |
| 20260506084215 | 10 | 357 | 16.1 | 27.4 | 0.00 | 0.00 | 0.00 | 71 | 1012.6 |
| 20260506083504 | 10 | 350 | 14.5 | 27.4 | 0.00 | 0.00 | 0.00 | 71 | 1012.6 |
| 20260506083003 | 10 | 354 | 14.5 | 27.4 | 0.00 | 0.00 | 0.00 | 72 | 1012.6 |
| 20260506082504 | 10 | 1 | 12.9 | 27.4 | 0.00 | 0.00 | 0.00 | 76 | 1012.6 |
| 20260506082217 | 9 | 3 | 12.9 | 24.1 | 0.00 | 0.00 | 0.00 | 75 | 1012.6 |
| 20260506081715 | 8 | 355 | 12.9 | 24.1 | 0.00 | 0.00 | 0.00 | 75 | 1012.6 |
| 20260506081003 | 9 | 350 | 12.9 | 24.1 | 0.00 | 0.00 | 0.00 | 74 | 1012.5 |
| 20260506080504 | 9 | 351 | 12.9 | 24.1 | 0.00 | 0.00 | 0.00 | 74 | 1012.5 |
| 20260506073503 | 8 | 351 | 11.3 | 22.5 | 0.00 | 0.00 | 0.00 | 76 | 1012.5 |
| 20260506073004 | 8 | 345 | 12.9 | 22.5 | 0.00 | 0.00 | 0.00 | 78 | 1012.5 |
| 20260506072715 | 8 | 347 | 12.9 | 24.1 | 0.00 | 0.00 | 0.00 | 78 | 1012.5 |
| 20260506072003 | 8 | 348 | 12.9 | 24.1 | 0.00 | 0.00 | 0.00 | 78 | 1012.5 |
| 20260506071503 | 8 | 346 | 12.9 | 22.5 | 0.00 | 0.00 | 0.00 | 79 | 1012.5 |
| 20260506071004 | 8 | 347 | 11.3 | 20.9 | 0.00 | 0.00 | 0.00 | 79 | 1012.5 |
| 20260506070503 | 8 | 344 | 12.9 | 22.5 | 0.00 | 0.00 | 0.00 | 80 | 1012.5 |
| 20260506062503 | 7 | 345 | 11.3 | 20.9 | 0.00 | 0.00 | 0.00 | 83 | 1012.3 |
| 20260506062003 | 7 | 342 | 9.7 | 19.3 | 0.00 | 0.00 | 0.00 | 83 | 1012.3 |
| 20260506061503 | 7 | 347 | 9.7 | 19.3 | 0.00 | 0.00 | 0.00 | 83 | 1012.3 |
| 20260506061003 | 6 | 353 | 9.7 | 20.9 | 0.00 | 0.00 | 0.00 | 83 | 1012.2 |
| 20260506060503 | 6 | 349 | 9.7 | 20.9 | 0.00 | 0.00 | 0.00 | 83 | 1012.2 |
| 20260506051003 | 6 | 347 | 6.4 | 17.7 | 0.00 | 0.00 | 0.00 | 85 | 1012.1 |
| 20260506050504 | 6 | 348 | 6.4 | 9.7 | 0.00 | 0.00 | 0.00 | 85 | 1012.1 |
| 20260506044503 | 6 | 344 | 6.4 | 14.5 | 0.00 | 0.00 | 0.00 | 84 | 1012.1 |
| 20260506044004 | 6 | 347 | 6.4 | 11.3 | 0.00 | 0.00 | 0.00 | 84 | 1012.1 |
| 20260506043505 | 6 | 351 | 4.8 | 11.3 | 0.00 | 0.00 | 0.00 | 84 | 1012.1 |
| 20260506043003 | 6 | 354 | 4.8 | 9.7 | 0.00 | 0.00 | 0.00 | 83 | 1012.1 |
| 20260506042503 | 6 | 356 | 6.4 | 16.1 | 0.00 | 0.00 | 0.00 | 83 | 1012.1 |
| 20260506042215 | 6 | 358 | 6.4 | 19.3 | 0.00 | 0.00 | 0.00 | 83 | 1012.1 |
| 20260506041504 | 6 | 358 | 11.3 | 22.5 | 0.00 | 0.00 | 0.00 | 83 | 1012.1 |
| 20260506041003 | 7 | 357 | 11.3 | 20.9 | 0.00 | 0.00 | 0.00 | 83 | 1012.1 |
| 20260506040713 | 7 | 356 | 11.3 | 20.9 | 0.00 | 0.00 | 0.00 | 83 | 1012.1 |
| 20260506040004 | 7 | 354 | 9.7 | 19.3 | 0.00 | 0.00 | 0.00 | 83 | 1012.1 |
| 20260506035714 | 7 | 354 | 8.0 | 19.3 | 0.00 | 0.00 | 0.00 | 83 | 1012.1 |
| 20260506035003 | 7 | 357 | 8.0 | 22.5 | 0.00 | 0.00 | 0.00 | 83 | 1012.1 |
| 20260506034503 | 7 | 357 | 8.0 | 22.5 | 0.00 | 0.00 | 0.00 | 83 | 1012.1 |
| 20260506034005 | 7 | 358 | 8.0 | 22.5 | 0.00 | 0.00 | 0.00 | 83 | 1012.0 |
| 20260506033503 | 7 | 3 | 8.0 | 19.3 | 0.00 | 0.00 | 0.00 | 83 | 1012.0 |
| 20260506033214 | 7 | 4 | 9.7 | 19.3 | 0.00 | 0.00 | 0.00 | 83 | 1012.0 |
| 20260506032504 | 7 | 357 | 9.7 | 22.5 | 0.00 | 0.00 | 0.00 | 83 | 1012.1 |
| 20260506032003 | 7 | 354 | 8.0 | 14.5 | 0.00 | 0.00 | 0.00 | 83 | 1012.1 |
| 20260506031503 | 7 | 359 | 8.0 | 20.9 | 0.00 | 0.00 | 0.00 | 82 | 1012.1 |
| 20260506031003 | 7 | 2 | 8.0 | 20.9 | 0.00 | 0.00 | 0.00 | 82 | 1012.2 |
| 20260506030503 | 7 | 3 | 8.0 | 19.3 | 0.00 | 0.00 | 0.00 | 82 | 1012.2 |
| 20260506030003 | 7 | 2 | 6.4 | 19.3 | 0.00 | 0.00 | 0.00 | 82 | 1012.2 |
| 20260506025503 | 7 | 1 | 6.4 | 19.3 | 0.00 | 0.00 | 0.00 | 82 | 1012.3 |
| 20260506025003 | 7 | 3 | 8.0 | 19.3 | 0.00 | 0.00 | 0.00 | 82 | 1012.3 |
| 20260506024503 | 7 | 4 | 6.4 | 19.3 | 0.00 | 0.00 | 0.00 | 82 | 1012.3 |
| 20260506024003 | 7 | 2 | 8.0 | 20.9 | 0.00 | 0.00 | 0.00 | 82 | 1012.1 |
| 20260506023717 | 7 | 2 | 9.7 | 20.9 | 0.00 | 0.00 | 0.00 | 81 | 1012.1 |
| 20260506023004 | 7 | 1 | 6.4 | 20.9 | 0.00 | 0.00 | 0.00 | 81 | 1012.1 |
| 20260506022504 | 7 | 2 | 6.4 | 14.5 | 0.00 | 0.00 | 0.00 | 81 | 1012.3 |
| 20260506022003 | 7 | 7 | 6.4 | 19.3 | 0.00 | 0.00 | 0.00 | 81 | 1012.3 |
| 20260506021503 | 7 | 3 | 9.7 | 24.1 | 0.00 | 0.00 | 0.00 | 81 | 1012.3 |
| 20260506021003 | 7 | 359 | 9.7 | 24.1 | 0.00 | 0.00 | 0.00 | 81 | 1012.4 |
| 20260506020503 | 7 | 6 | 6.4 | 19.3 | 0.00 | 0.00 | 0.00 | 81 | 1012.4 |
| 20260506020004 | 7 | 9 | 6.4 | 19.3 | 0.00 | 0.00 | 0.00 | 81 | 1012.4 |
| 20260506015503 | 7 | 5 | 8.0 | 19.3 | 0.00 | 0.00 | 0.00 | 81 | 1012.5 |